Showing default

DUMMY SAT 3/ORION, 59479

Orbit data source: Space-Track

DUMMY SAT 3/ORION, 59479 is a payload satellite owned by Khrunichev (CIS) in GEO that was launched on Thu, 11 Apr 2024 UTC via an ANGARA A5/ORION launch vehicle from the Vostochny Cosmodrome (VOSTO). Payload-class satellites include a variety of spacecraft equipped with specific instruments for various scientific and technological missions. These include communications satellites like Starlink; space stations such as the ISS; scientific satellites like the Hubble; Earth observation satellites from companies like Planet Labs, Umbra, and HawkEye 360; GPS; miniature CubeSats for education and research; and military/defense satellites.

Not visible in the next 10 days
Identifier
59479, 2024-069A
Orbit
GEO
Country
Flag of CISCIS
Related business
Manufacturer
Khrunichev
Mission
Operational Civil Technology
Bus & Motor
GVM, Unknown motor
Mass
~20,000 kg wet, 2,400 kg dry
Launch date (UTC)
2024-04-11 (2 years ago)
Launch vehicle
ANGARA A5/ORION
Launch site
Vostochny Cosmodrome (VOSTO)
Object type
Payload
Rocket body
Debris
Shape & HBR
Flared Cyl, 2.0 m
Radar Cross Section
7.854 m²

Expand to show TLE details & history
Last TLE update: 13 hours ago

TLE from 13 hours ago
0 DUMMY SAT 3/ORION
1 59479U 24069A   25353.93056587 -.00000080  00000-0  00000+0 0  9994
2 59479   1.6568  83.5093 0051545 129.9243 229.5589  0.98607920  6041
Epoch: 2025-12-19T22:20Z
TLE epoch observation values (Epoch: 2025-12-19T22:20:00.891Z)
Latitude
Longitude
18.7709°
Altitude
36,402.989 km
Speed
3.047 km/s
True Right ascension
05h 30m 09s
True Declination
0° 00' 00"
Sunlit
Object was in daylight at epoch
Visualization orbit readout
Latitude
Unknown
Longitude
Unknown
Altitude
Unknown
Speed
Unknown
Apparent Right ascension
Unknown
Apparent Declination
Unknown
Sunlit
N/A
Visualization observer readout
Local Sidereal Time
09:59:46
Azimuth
Unknown
Elevation
Unknown
Doppler factor
Unknown
Orbital elements
Apogee altitude
36,480.423 km
Perigee altitude
36,040.86 km
Semi-major axis
42,638.778 km
Eccentricity
0.00515
Inclination
1.6568°
RAAN
83.5093°
Arg. of periapsis
129.9243°
True anomaly
229.11124°
Mean anomaly
229.5589°
Eccentric anomaly
229.33488°
Mean motion
0.24651 °/min
Orbital period
1,460.38 mins
BSTAR
0
Loading maneuver chart data...
Computing Atmospheric mass density...
Loading historical data...
Loading historical data...
Loading historical data...
Loading historical data...
Loading historical data...
Loading historical data...
Loading historical data...
Other satellites on launch #69 in the year 2024 (2024-04-11 UTC)

Documentation

Showing up to 5 results
|